Location: Plzen
(49.7500°N, 13.3670°E)
Time: 04:06:55
(UTC+02:00)

ISS - Pass Details

Date: 23 May 2021
Orbit: 417 x 422 km, 51.6° (Epoch: 13 June)

Event Time Altitude Azimuth Distance (km) Brightness Sun altitude
Rises 00:33:57 0° 288° (WNW) 2,370 0.4 -19.4°
Reaches altitude 10° 00:36:06 10° 282° (WNW) 1,504 -0.7 -19.4°
Enters shadow 00:38:13 31° 258° (WSW) 765 -2.5 -19.5°
